Location: Oshawa
(43.9000°N, 78.8670°W)
Time: 19:07:57
(UTC-05:00)

CARTOSAT-1 - Pass Details

Date: 17 August 2017
Orbit: 618 x 619 km, 97.8° (Epoch: 19 November)

Event Time Altitude Azimuth Distance (km) Brightness Sun altitude
Exits shadow 23:37:44 42° 297° (WNW) 883 4.6 -28.5°
Drops below altitude 10° 23:41:06 10° 336° (NNW) 1,993 7.1 -28.8°
Sets 23:43:21 0° 342° (NNW) 2,904 8.2 -29.0°
